Weather History for Nome, AK

Change the Weather History Date:

Thursday, February 28, 2013

  Actual Average Record
Temperature  
Mean Temperature 1 °F -  
Max Temperature 6 °F 17 °F 41 °F (1991)
Min Temperature -4 °F - -42 °F (1971)
Degree Days  
Heating Degree Days 64 56  
Month to date heating degree days 1829 1611  
Since 1 July heating degree days 9541 9282  
Cooling Degree Days 0    
Month to date cooling degree days 0  
Year to date cooling degree days 0  
Moisture  
Dew Point -4 °F    
Average Humidity 0    
Maximum Humidity 0    
Minimum Humidity 0    
Precipitation  
Precipitation T in 0.03 in 1.56 in (1920)
Month to date precipitation 0.36 0.93  
Year to date precipitation 1.52 1.87  
Snow  
Snow T in 0.40 in 6.00 in (1920)
Month to date snowfall 7.5 12.2  
Since 1 July snowfall 41.3 56.7  
Snow Depth 25.00 in    
Sea Level Pressure  
Sea Level Pressure 29.55 in    
Wind  
Wind Speed 9 mph (WNW)    
Max Wind Speed 23 mph    
Max Gust Speed 28 mph    
Visibility 10 miles    
Events Snow    
T = Trace of Precipitation, MM = Missing Value Source: NWS Daily Summary

Daily Weather History Graph

Daily Weather History Graph

Search for Another Location

Airport:

Trip Planner

Search our weather history database for the weather conditions in past years. The results will help you decide how hot, cold, wet, or windy it might be!

Date:

Astronomy

Feb. 28, 2013 Rise Set
Actual Time 9:11 AM AKST 7:17 PM AKST
Civil Twilight 8:23 AM AKST 8:06 PM AKST
Nautical Twilight 7:27 AM AKST 9:02 PM AKST
Astronomical Twilight 6:29 AM AKST 10:00 PM AKST
Moon No Moon Rise 9:03 AM AKST
Length of Visible Light 11h 43m
Length of Day
10h 05m
Waning Gibbous, 90% of the Moon is Illuminated
Feb 28
Waning Gibbous
Mar 4
Last Quarter
Mar 11
New
Mar 19
First Quarter
Mar 27
Full

Hourly Weather History & Observations

Time (AKST) Temp. Windchill Dew Point Humidity Pressure Visibility Wind Dir Wind Speed Gust Speed Precip Events Conditions
12:53 AM -2.9 °F - -6.0 °F 87% 29.38 in 10.0 mi Calm Calm - N/A   Scattered Clouds
1:53 AM -2.9 °F - -6.0 °F 87% 29.39 in 10.0 mi Calm Calm - N/A   Mostly Cloudy
3:53 AM 1.0 °F - -2.9 °F 83% 29.40 in 10.0 mi Calm Calm - N/A   Overcast
4:53 AM 1.0 °F - -2.0 °F 87% 29.41 in 10.0 mi Calm Calm - N/A   Overcast
5:53 AM 1.0 °F - -2.0 °F 87% 29.43 in 9.0 mi Calm Calm - 0.00 in Snow Light Snow
6:33 AM 1.4 °F - -2.2 °F 85% 29.44 in 9.0 mi Calm Calm - 0.00 in Snow Light Snow
6:46 AM 3.2 °F -6.2 °F -0.4 °F 85% 29.43 in 9.0 mi ENE 4.6 mph - 0.00 in Snow Light Snow
6:53 AM 6.1 °F -0.9 °F 1.9 °F 83% 29.44 in 9.0 mi East 3.5 mph - 0.00 in Snow Light Snow
7:28 AM 1.4 °F - -0.4 °F 92% 29.45 in 9.0 mi Calm Calm - 0.00 in Snow Light Snow
7:53 AM 1.9 °F - -2.0 °F 83% 29.46 in 9.0 mi Calm Calm - 0.00 in Snow Light Snow
8:53 AM 1.0 °F - -2.9 °F 83% 29.48 in 10.0 mi Calm Calm - 0.00 in   Overcast
9:53 AM 1.9 °F - -2.0 °F 83% 29.48 in 10.0 mi Calm Calm - N/A   Overcast
10:53 AM 1.0 °F -16.6 °F -2.9 °F 83% 29.50 in 9.0 mi West 12.7 mph - 0.00 in Snow Light Snow
11:53 AM 1.9 °F -13.8 °F -2.9 °F 80% 29.53 in 9.0 mi West 10.4 mph - 0.00 in   Mostly Cloudy
12:53 PM 1.9 °F -16.9 °F -4.0 °F 76% 29.53 in 10.0 mi West 15.0 mph - N/A   Mostly Cloudy
1:53 PM 3.9 °F -15.0 °F -2.9 °F 73% 29.56 in 10.0 mi WNW 16.1 mph - N/A   Scattered Clouds
2:53 PM 1.9 °F -19.8 °F -4.0 °F 76% 29.59 in 10.0 mi WNW 20.7 mph - N/A   Scattered Clouds
3:53 PM 1.9 °F -18.7 °F -4.0 °F 76% 29.61 in 10.0 mi WNW 18.4 mph - N/A   Scattered Clouds
4:53 PM 1.0 °F -19.3 °F -6.0 °F 72% 29.63 in 10.0 mi WNW 17.3 mph - N/A   Scattered Clouds
5:53 PM -0.0 °F -19.4 °F -6.0 °F 76% 29.65 in 10.0 mi WNW 15.0 mph - N/A   Scattered Clouds
6:53 PM -0.9 °F -21.2 °F -7.1 °F 75% 29.68 in 10.0 mi WNW 16.1 mph - N/A   Partly Cloudy
7:53 PM -2.0 °F -23.3 °F -7.1 °F 79% 29.71 in 10.0 mi WNW 17.3 mph - N/A   Partly Cloudy
8:53 PM -2.9 °F -23.1 °F -8.0 °F 79% 29.72 in 10.0 mi WNW 15.0 mph - N/A   Partly Cloudy
9:53 PM -2.9 °F -23.1 °F -8.0 °F 79% 29.76 in 10.0 mi West 15.0 mph - N/A   Clear
10:53 PM -4.0 °F -24.5 °F -7.6 °F 85% 29.79 in 10.0 mi West 15.0 mph - N/A   Clear
11:53 PM -2.0 °F -23.3 °F -7.1 °F 79% 29.80 in 10.0 mi WNW 17.3 mph - N/A   Clear